Location: Pel�-Koumbol�
(14.9505°N, 3.0798°W)
Time: 14:25:11
(UTC+00:00)

ALOS - Pass Details

Date: 17 February 2020
Orbit: 683 x 686 km, 97.8° (Epoch: 29 March)

Event Time Altitude Azimuth Distance (km) Brightness Sun altitude
Rises 05:21:46 0° 5° (N) 3,037 5.6 -18.5°
Reaches altitude 10° 05:24:02 10° 1° (N) 2,121 4.7 -17.9°
Maximum altitude 05:28:35 57° 283° (WNW) 800 2.2 -16.9°
Drops below altitude 10° 05:33:08 10° 204° (SSW) 2,119 4.6 -15.8°
Sets 05:35:24 0° 200° (SSW) 3,033 5.5 -15.2°
